Location: Arborea
(39.7744°N, 8.5819°E)
Time: 12:53:41
(UTC+00:00)

Cosmos 1953 - Visible Passes

Search period start: 29 May 2022 00:00
Search period end: 08 June 2022 00:00
Orbit: 536 x 553 km, 82.5° (Epoch: 28 May)

Date Brightness Start Highest point End Pass type
(mag) Time Alt. Az. Time Alt. Az. Time Alt. Az.
29 May 3.9 23:24:07 10° N 23:26:36 34° NNE 23:26:36 34° NNE visible
30 May 3.8 23:18:04 10° N 23:20:34 34° NNE 23:20:34 34° NNE visible
31 May 3.8 23:12:00 10° N 23:14:32 35° NNE 23:14:32 35° NNE visible
01 Jun 3.7 23:05:56 10° N 23:08:30 37° NNE 23:08:30 37° NNE visible
02 Jun 3.6 22:59:52 10° N 23:02:28 38° NNE 23:02:28 38° NNE visible
03 Jun 3.5 22:53:47 10° N 22:56:27 40° N 22:56:27 40° N visible
04 Jun 3.4 22:47:42 10° N 22:50:26 41° N 22:50:26 41° N visible
05 Jun 3.3 22:41:37 10° N 22:44:25 44° N 22:44:25 44° N visible
06 Jun 3.2 22:35:32 10° N 22:38:25 46° N 22:38:25 46° N visible
07 Jun 3.1 22:29:26 10° N 22:32:25 49° N 22:32:25 49° N visible
